[Date Prev][Date Next][Thread Prev][Thread Next] - [Date Index][Thread Index][Author Index]

2 Line ISS Keps 7-3



ISS
1 25544U 98067A   04185.47363426  .00014088  00000-0  12151-3 0  1304
2 25544  51.6323 242.6773 0005471 319.7946 234.8417 15.69550588320870

----
Via the sarex mailing list at AMSAT.ORG courtesy of AMSAT-NA.
To unsubscribe, send "unsubscribe sarex" to Majordomo@amsat.org



AMSAT Top AMSAT Home